Weather History for Lewisburg, WV

Change the Weather History Date:

Thursday, June 27, 2013

  Actual Average Record
Temperature  
Mean Temperature 66 °F 69 °F  
Max Temperature 71 °F 81 °F 90 °F (2010)
Min Temperature 60 °F 58 °F 43 °F (2004)
Degree Days  
Heating Degree Days 0    
Month to date heating degree days  
Since 1 June heating degree days  
Cooling Degree Days 0    
Month to date cooling degree days  
Year to date cooling degree days  
Since 1 June cooling degree days  
Growing Degree Days 16 (Base 50)    
Moisture  
Dew Point 61 °F    
Average Humidity 83    
Maximum Humidity 94    
Minimum Humidity 64    
Precipitation  
Precipitation 0.03 in 0.12 in 0.17 in (1949)
Month to date precipitation 3.38  
Year to date precipitation 20.56  
Snow  
Snow 0.00 in - - ()
Month to date snowfall  
Since 1 June snowfall  
Snow Depth -    
Sea Level Pressure  
Sea Level Pressure 29.88 in    
Wind  
Wind Speed 4 mph (WSW)    
Max Wind Speed 14 mph    
Max Gust Speed 21 mph    
Visibility 8 miles    
Events Fog , Rain    
T = Trace of Precipitation, MM = Missing Value Source: NWS Daily Summary

Daily Weather History Graph

Daily Weather History Graph

Search for Another Location

Airport:

Trip Planner

Search our weather history database for the weather conditions in past years. The results will help you decide how hot, cold, wet, or windy it might be!

Date:

Astronomy

Jun. 27, 2013 Rise Set
Actual Time 6:01 AM EDT 8:47 PM EDT
Civil Twilight 5:30 AM EDT 9:19 PM EDT
Nautical Twilight 4:50 AM EDT 9:58 PM EDT
Astronomical Twilight 4:06 AM EDT 10:42 PM EDT
Moon 11:50 PM EDT (6/27) 10:55 AM EDT (6/27)
Length of Visible Light 15h 48m
Length of Day
14h 46m
Waning Gibbous, 76% of the Moon is Illuminated
Jun 27
Waning Gibbous
Jun 30
Last Quarter
Jul 8
New
Jul 15
First Quarter
Jul 22
Full

Hourly Weather History & Observations

Time (EDT) Temp. Dew Point Humidity Pressure Visibility Wind Dir Wind Speed Gust Speed Precip Events Conditions
12:15 AM 66.2 °F 62.6 °F 88% 29.98 in 10.0 mi Calm Calm - N/A   Scattered Clouds
12:35 AM 64.4 °F 62.6 °F 94% 29.97 in 7.0 mi Calm Calm - N/A   Scattered Clouds
12:55 AM 66.2 °F 62.6 °F 88% 29.98 in 10.0 mi Calm Calm - N/A   Scattered Clouds
1:15 AM 64.4 °F 62.6 °F 94% 29.97 in 7.0 mi Calm Calm - N/A   Scattered Clouds
1:35 AM 64.4 °F 62.6 °F 94% 29.96 in 5.0 mi Calm Calm - N/A   Scattered Clouds
2:15 AM 64.4 °F 62.6 °F 94% 29.94 in 7.0 mi Calm Calm - N/A   Clear
2:35 AM 64.4 °F 60.8 °F 88% 29.93 in 7.0 mi Calm Calm - N/A   Clear
2:55 AM 64.4 °F 60.8 °F 88% 29.92 in 7.0 mi Calm Calm - N/A   Clear
3:15 AM 62.6 °F 60.8 °F 94% 29.92 in 10.0 mi North 3.5 mph - N/A   Clear
3:35 AM 62.6 °F 60.8 °F 94% 29.90 in 4.0 mi NNE 3.5 mph - N/A   Clear
3:55 AM 62.6 °F 60.8 °F 94% 29.89 in 1.2 mi Calm Calm - N/A   Mostly Cloudy
4:15 AM 62.6 °F 60.8 °F 94% 29.89 in 1.2 mi North 3.5 mph - N/A   Mostly Cloudy
4:35 AM 62.6 °F 60.8 °F 94% 29.87 in 0.5 mi ENE 3.5 mph - N/A Fog Fog
4:55 AM 62.6 °F 60.8 °F 94% 29.87 in 0.5 mi NNE 3.5 mph - N/A Fog Fog
5:15 AM 60.8 °F 59.0 °F 94% 29.86 in 0.2 mi NNE 3.5 mph - N/A Fog Fog
5:35 AM 62.6 °F 60.8 °F 94% 29.86 in 0.8 mi Calm Calm - N/A   Overcast
5:55 AM 62.6 °F 60.8 °F 94% 29.86 in 2.0 mi NNE 3.5 mph - N/A   Mostly Cloudy
6:15 AM 62.6 °F 60.8 °F 94% 29.86 in 1.8 mi NE 3.5 mph - N/A   Mostly Cloudy
6:35 AM 62.6 °F 60.8 °F 94% 29.87 in 2.0 mi Calm Calm - N/A   Overcast
6:55 AM 62.6 °F 60.8 °F 94% 29.87 in 5.0 mi Calm Calm - N/A Rain Rain
7:15 AM 62.6 °F 60.8 °F 94% 29.87 in 5.0 mi Calm Calm - N/A   Mostly Cloudy
7:35 AM 64.4 °F 62.6 °F 94% 29.86 in 10.0 mi SW 6.9 mph - N/A   Mostly Cloudy
7:55 AM 66.2 °F 60.8 °F 83% 29.86 in 10.0 mi WSW 6.9 mph - N/A   Overcast
8:15 AM 64.4 °F 60.8 °F 88% 29.88 in 5.0 mi West 5.8 mph - 0.01 in Rain Light Rain
8:35 AM 64.4 °F 60.8 °F 88% 29.88 in 7.0 mi West 8.1 mph - 0.01 in   Overcast
8:55 AM 64.4 °F 60.8 °F 88% 29.89 in 10.0 mi WSW 8.1 mph - 0.02 in   Light Drizzle
9:15 AM 64.4 °F 60.8 °F 88% 29.90 in 7.0 mi WSW 8.1 mph - N/A Rain Rain
9:35 AM 64.4 °F 60.8 °F 88% 29.90 in 10.0 mi SW 5.8 mph - N/A Rain Rain
9:55 AM 64.4 °F 60.8 °F 88% 29.89 in 10.0 mi WSW 9.2 mph - N/A Rain Light Rain
10:15 AM 64.4 °F 60.8 °F 88% 29.89 in 10.0 mi WSW 6.9 mph - N/A Rain Light Rain
10:35 AM 64.4 °F 60.8 °F 88% 29.90 in 10.0 mi WSW 8.1 mph - N/A   Overcast
10:55 AM 64.4 °F 60.8 °F 88% 29.90 in 10.0 mi WSW 10.4 mph - N/A   Overcast
11:15 AM 64.4 °F 60.8 °F 88% 29.89 in 7.0 mi SW 6.9 mph - N/A   Light Drizzle
11:35 AM 64.4 °F 60.8 °F 88% 29.89 in 10.0 mi SSW 9.2 mph - N/A   Overcast
11:55 AM 64.4 °F 60.8 °F 88% 29.90 in 10.0 mi SW 8.1 mph - N/A   Overcast
12:15 PM 64.4 °F 60.8 °F 88% 29.90 in 10.0 mi WSW 8.1 mph - N/A   Overcast
12:35 PM 62.6 °F 60.8 °F 94% 29.89 in 7.0 mi SW 8.1 mph - 0.01 in Rain Light Rain
12:55 PM 64.4 °F 62.6 °F 94% 29.89 in 10.0 mi SW 9.2 mph - 0.01 in   Overcast
1:15 PM 66.2 °F 60.8 °F 83% 29.89 in 10.0 mi SW 6.9 mph - N/A   Overcast
1:35 PM 66.2 °F 60.8 °F 83% 29.89 in 10.0 mi SW 6.9 mph - N/A   Overcast
1:55 PM 68.0 °F 60.8 °F 78% 29.88 in 10.0 mi SW 8.1 mph - N/A   Overcast
2:15 PM 68.0 °F 60.8 °F 78% 29.88 in 10.0 mi SW 8.1 mph - N/A   Overcast
2:35 PM 68.0 °F 60.8 °F 78% 29.87 in 10.0 mi SW 6.9 mph - N/A   Overcast
2:55 PM 68.0 °F 60.8 °F 78% 29.87 in 10.0 mi WSW 6.9 mph - N/A   Overcast
3:15 PM 68.0 °F 60.8 °F 78% 29.87 in 10.0 mi SW 4.6 mph - N/A   Overcast
3:35 PM 69.8 °F 62.6 °F 78% 29.86 in 10.0 mi WSW 5.8 mph - N/A   Mostly Cloudy
3:55 PM 71.6 °F 62.6 °F 73% 29.85 in 10.0 mi WSW 10.4 mph - N/A   Mostly Cloudy
4:15 PM 71.6 °F 62.6 °F 73% 29.85 in 10.0 mi West 10.4 mph 16.1 mph N/A   Mostly Cloudy
4:35 PM 71.6 °F 60.8 °F 69% 29.85 in 10.0 mi West 13.8 mph 20.7 mph N/A   Overcast
4:55 PM 71.6 °F 60.8 °F 69% 29.84 in 10.0 mi West 8.1 mph - N/A   Overcast
5:15 PM 71.6 °F 60.8 °F 69% 29.84 in 10.0 mi WNW 5.8 mph - N/A   Mostly Cloudy
5:35 PM 71.6 °F 60.8 °F 69% 29.83 in 10.0 mi West 5.8 mph - N/A   Mostly Cloudy
5:55 PM 71.6 °F 60.8 °F 69% 29.83 in 10.0 mi West 6.9 mph - N/A   Overcast
6:15 PM 71.6 °F 59.0 °F 64% 29.83 in 10.0 mi West 8.1 mph 16.1 mph N/A   Overcast
6:35 PM 71.6 °F 60.8 °F 69% 29.83 in 10.0 mi West 5.8 mph - N/A   Overcast
6:55 PM 71.6 °F 59.0 °F 64% 29.83 in 10.0 mi West 8.1 mph - N/A   Overcast
7:15 PM 71.6 °F 59.0 °F 64% 29.83 in 10.0 mi WNW 4.6 mph - N/A   Overcast
7:35 PM 69.8 °F 59.0 °F 68% 29.84 in 10.0 mi West 4.6 mph - N/A   Overcast
7:55 PM 69.8 °F 60.8 °F 73% 29.84 in 10.0 mi West 4.6 mph - N/A   Overcast
8:15 PM 69.8 °F 60.8 °F 73% 29.84 in 10.0 mi West 5.8 mph - N/A   Overcast
8:35 PM 69.8 °F 60.8 °F 73% 29.84 in 10.0 mi West 3.5 mph - N/A   Overcast
8:55 PM 69.8 °F 60.8 °F 73% 29.84 in 10.0 mi Calm Calm - N/A   Overcast
9:15 PM 69.8 °F 60.8 °F 73% 29.84 in 10.0 mi Calm Calm - N/A   Overcast
9:35 PM 69.8 °F 60.8 °F 73% 29.86 in 10.0 mi Calm Calm - N/A   Overcast
9:55 PM 69.8 °F 60.8 °F 73% 29.86 in 10.0 mi WSW 5.8 mph - N/A   Overcast
10:15 PM 68.0 °F 60.8 °F 78% 29.85 in 10.0 mi WSW 3.5 mph - N/A   Scattered Clouds
10:35 PM 68.0 °F 60.8 °F 78% 29.86 in 10.0 mi WSW 6.9 mph - N/A   Scattered Clouds
10:55 PM 68.0 °F 60.8 °F 78% 29.85 in 10.0 mi West 4.6 mph - N/A   Scattered Clouds
11:15 PM 68.0 °F 60.8 °F 78% 29.84 in 10.0 mi WSW 5.8 mph - N/A   Mostly Cloudy
11:35 PM 68.0 °F 60.8 °F 78% 29.84 in 10.0 mi WSW 5.8 mph - N/A   Mostly Cloudy
11:55 PM 68.0 °F 60.8 °F 78% 29.84 in 10.0 mi WSW 4.6 mph - N/A   Scattered Clouds